TimeCDT,TemperatureF,Dew PointF,Humidity,Sea Level PressureIn,VisibilityMPH,Wind Direction,Wind SpeedMPH,Gust SpeedMPH,PrecipitationIn,Events,Conditions,WindDirDegrees,DateUTC
12:14 AM,26.6,12.2,55,30.26,10.0,NW,6.9,-,N/A,,Clear,310,2013-04-23 05:14:00
12:33 AM,24.8,14.0,64,30.26,10.0,NW,6.9,-,N/A,,Clear,310,2013-04-23 05:33:00
12:53 AM,24.8,14.0,64,30.26,10.0,WNW,8.1,-,N/A,,Clear,300,2013-04-23 05:53:00
1:14 AM,24.8,14.0,64,30.25,10.0,NW,8.1,-,N/A,,Clear,310,2013-04-23 06:14:00
1:33 AM,21.2,12.2,68,30.25,10.0,NW,6.9,-,N/A,,Clear,310,2013-04-23 06:33:00
1:53 AM,21.2,14.0,74,30.25,10.0,WNW,9.2,-,N/A,,Clear,300,2013-04-23 06:53:00
2:14 AM,23.0,14.0,68,30.24,10.0,WNW,9.2,-,N/A,,Clear,300,2013-04-23 07:14:00
2:33 AM,21.2,14.0,74,30.23,10.0,WNW,9.2,-,N/A,,Clear,300,2013-04-23 07:33:00
2:54 AM,19.4,12.2,74,30.23,10.0,WNW,8.1,-,N/A,,Clear,300,2013-04-23 07:54:00
3:14 AM,15.8,10.4,79,30.22,10.0,NW,6.9,-,N/A,,Clear,310,2013-04-23 08:14:00
3:17 AM,15.8,12.2,86,30.22,10.0,NW,6.9,-,N/A,,Clear,310,2013-04-23 08:17:00
3:41 AM,15.8,10.4,79,30.21,10.0,NW,5.8,-,N/A,,Clear,320,2013-04-23 08:41:00
4:16 AM,17.6,12.2,79,30.21,10.0,NW,3.5,-,N/A,,Clear,320,2013-04-23 09:16:00
4:34 AM,17.6,12.2,79,30.20,10.0,NNW,3.5,-,N/A,,Clear,330,2013-04-23 09:34:00
4:53 AM,17.6,12.2,79,30.20,10.0,WNW,8.1,-,N/A,,Clear,290,2013-04-23 09:53:00
5:13 AM,17.6,12.2,79,30.20,10.0,NW,4.6,-,N/A,,Clear,310,2013-04-23 10:13:00
5:34 AM,15.8,12.2,86,30.20,10.0,Calm,Calm,-,N/A,,Clear,0,2013-04-23 10:34:00
5:53 AM,17.6,12.2,79,30.19,10.0,Calm,Calm,-,N/A,,Clear,0,2013-04-23 10:53:00
6:13 AM,17.6,12.2,79,30.19,10.0,NW,3.5,-,N/A,,Clear,320,2013-04-23 11:13:00
6:34 AM,17.6,12.2,79,30.18,10.0,NNW,3.5,-,N/A,,Clear,330,2013-04-23 11:34:00
6:53 AM,17.6,14.0,86,30.18,10.0,Calm,Calm,-,N/A,,Clear,0,2013-04-23 11:53:00
7:13 AM,17.6,14.0,86,30.18,10.0,Calm,Calm,-,N/A,,Clear,0,2013-04-23 12:13:00
7:33 AM,17.6,14.0,86,30.18,10.0,Calm,Calm,-,N/A,,Clear,0,2013-04-23 12:33:00
7:54 AM,17.6,14.0,86,30.18,10.0,Calm,Calm,-,N/A,,Clear,0,2013-04-23 12:54:00
8:13 AM,19.4,15.8,86,30.18,10.0,Calm,Calm,-,N/A,,Clear,0,2013-04-23 13:13:00
8:34 AM,21.2,15.8,80,30.17,10.0,Calm,Calm,-,N/A,,Clear,0,2013-04-23 13:34:00
8:53 AM,23.0,15.8,74,30.17,10.0,Calm,Calm,-,N/A,,Clear,0,2013-04-23 13:53:00
9:14 AM,19.4,15.8,86,30.17,10.0,South,3.5,-,N/A,,Clear,170,2013-04-23 14:14:00
9:33 AM,19.4,15.8,86,30.16,10.0,SSE,4.6,-,N/A,,Clear,160,2013-04-23 14:33:00
9:53 AM,21.2,17.6,86,30.16,10.0,SSE,4.6,-,N/A,,Clear,160,2013-04-23 14:53:00
10:13 AM,21.2,17.6,86,30.15,10.0,SSE,5.8,-,N/A,,Clear,160,2013-04-23 15:13:00
10:33 AM,23.0,19.4,86,30.15,10.0,South,9.2,-,N/A,,Scattered Clouds,170,2013-04-23 15:33:00
10:54 AM,24.8,21.2,86,30.14,10.0,SSE,5.8,-,N/A,,Scattered Clouds,150,2013-04-23 15:54:00
11:13 AM,26.6,21.2,80,30.14,10.0,SSE,9.2,-,N/A,,Mostly Cloudy,160,2013-04-23 16:13:00
11:33 AM,28.4,21.2,74,30.13,10.0,SSE,6.9,-,N/A,,Scattered Clouds,150,2013-04-23 16:33:00
11:54 AM,28.4,21.2,74,30.12,10.0,SE,5.8,-,N/A,,Scattered Clouds,140,2013-04-23 16:54:00
12:13 PM,30.2,19.4,64,30.11,10.0,SSE,10.4,-,N/A,,Clear,150,2013-04-23 17:13:00
12:53 PM,30.2,21.2,69,30.09,10.0,SSE,15.0,-,N/A,,Clear,150,2013-04-23 17:53:00
1:14 PM,30.2,21.2,69,30.08,10.0,SSE,11.5,-,N/A,,Clear,150,2013-04-23 18:14:00
1:33 PM,30.2,23.0,75,30.07,10.0,SSE,13.8,-,N/A,,Scattered Clouds,150,2013-04-23 18:33:00
1:54 PM,32.0,23.0,69,30.06,10.0,SSE,12.7,-,N/A,,Scattered Clouds,160,2013-04-23 18:54:00
2:13 PM,32.0,23.0,69,30.05,10.0,South,16.1,-,N/A,,Scattered Clouds,170,2013-04-23 19:13:00
2:33 PM,32.0,24.8,75,30.04,10.0,South,18.4,-,N/A,,Scattered Clouds,170,2013-04-23 19:33:00
2:54 PM,32.0,24.8,75,30.04,10.0,SSE,16.1,-,N/A,,Clear,160,2013-04-23 19:54:00
3:13 PM,33.8,24.8,70,30.03,10.0,South,17.3,-,N/A,,Clear,170,2013-04-23 20:13:00
3:33 PM,33.8,23.0,65,30.02,10.0,SSE,16.1,-,N/A,,Scattered Clouds,160,2013-04-23 20:33:00
3:54 PM,33.8,24.8,70,30.00,10.0,South,19.6,-,N/A,,Mostly Cloudy,180,2013-04-23 20:54:00
4:13 PM,33.8,24.8,70,30.00,10.0,South,18.4,-,N/A,,Scattered Clouds,170,2013-04-23 21:13:00
4:33 PM,33.8,24.8,70,29.99,10.0,South,18.4,-,N/A,,Scattered Clouds,170,2013-04-23 21:33:00
4:54 PM,33.8,26.6,75,29.99,10.0,SSE,12.7,-,N/A,,Scattered Clouds,160,2013-04-23 21:54:00
5:13 PM,37.4,21.2,52,29.98,10.0,South,5.8,9.2,N/A,,Mostly Cloudy,170,2013-04-23 22:13:00
5:33 PM,35.6,23.0,60,29.98,10.0,South,6.9,-,N/A,,Scattered Clouds,170,2013-04-23 22:33:00
5:54 PM,37.4,21.2,52,29.97,10.0,Calm,Calm,-,N/A,,Scattered Clouds,0,2013-04-23 22:54:00
6:13 PM,37.4,19.4,48,29.97,10.0,WNW,9.2,-,N/A,,Scattered Clouds,290,2013-04-23 23:13:00
6:33 PM,37.4,17.6,45,29.97,10.0,WNW,13.8,19.6,N/A,,Scattered Clouds,290,2013-04-23 23:33:00
6:54 PM,37.4,17.6,45,29.97,10.0,WNW,13.8,-,N/A,,Scattered Clouds,290,2013-04-23 23:54:00
7:13 PM,37.4,17.6,45,29.97,10.0,WNW,15.0,18.4,N/A,,Clear,290,2013-04-24 00:13:00
7:33 PM,37.4,17.6,45,29.97,10.0,West,15.0,-,N/A,,Scattered Clouds,260,2013-04-24 00:33:00
7:54 PM,37.4,17.6,45,29.97,10.0,West,9.2,-,N/A,,Overcast,260,2013-04-24 00:54:00
8:13 PM,35.6,15.8,44,29.97,10.0,West,6.9,-,N/A,,Scattered Clouds,260,2013-04-24 01:13:00
8:33 PM,33.8,19.4,56,29.97,10.0,WSW,9.2,-,N/A,,Clear,240,2013-04-24 01:33:00
8:54 PM,33.8,17.6,52,29.98,10.0,WSW,6.9,-,N/A,,Mostly Cloudy,240,2013-04-24 01:54:00
9:13 PM,33.8,15.8,48,29.98,10.0,West,6.9,-,N/A,,Scattered Clouds,260,2013-04-24 02:13:00
9:33 PM,32.0,17.6,55,29.98,10.0,West,9.2,-,N/A,,Clear,260,2013-04-24 02:33:00
9:54 PM,30.2,17.6,60,29.98,10.0,West,6.9,-,N/A,,Clear,260,2013-04-24 02:54:00
10:13 PM,30.2,17.6,60,29.97,10.0,WSW,4.6,-,N/A,,Clear,250,2013-04-24 03:13:00
10:33 PM,28.4,17.6,64,29.97,10.0,SSW,3.5,-,N/A,,Clear,210,2013-04-24 03:33:00
10:54 PM,26.6,17.6,69,29.96,10.0,SSW,5.8,-,N/A,,Clear,210,2013-04-24 03:54:00
11:13 PM,26.6,17.6,69,29.96,10.0,SSW,4.6,-,N/A,,Clear,210,2013-04-24 04:13:00
11:33 PM,28.4,17.6,64,29.95,10.0,SW,5.8,-,N/A,,Clear,230,2013-04-24 04:33:00
11:53 PM,28.4,17.6,64,29.95,10.0,WSW,6.9,-,N/A,,Clear,240,2013-04-24 04:53:00